AirNav   Air Wisconsin Up To $57,000 Bonus
 
 1560 users online  

1S4 Seiling Airport
Seiling, Oklahoma, USA

GOING TO SEILING?


FAA INFORMATION EFFECTIVE 02 JANUARY 2020

Location

FAA Identifier: 1S4
Lat/Long: 36-09-19.3000N 098-56-01.3000W
36-09.321667N 098-56.021667W
36.1553611,-98.9336944
(estimated)
Elevation: 1746 ft. / 532.2 m (surveyed)
Variation: 08E (1985)
Time zone: UTC -6 (UTC -5 during Daylight Saving Time)
Zip code: 73663

Airport Operations

Airport use: Open to the public
Activation date: 01/1962
Control tower: no
ARTCC: KANSAS CITY CENTER
FSS: MC ALESTER FLIGHT SERVICE STATION
NOTAMs facility: MLC (NOTAM-D service available)
Attendance: UNATNDD
Wind indicator: yes
Segmented circle: no
Lights: ACTIVATE LIRL RY 17/35 - CTAF.

Airport Communications

CTAF: 122.9

Airport Services

Airframe service: NONE
Powerplant service: NONE
Bottled oxygen: NONE
Bulk oxygen: NONE

Runway Information

Runway 17/35

Dimensions: 2435 x 38 ft. / 742 x 12 m
Surface: asphalt, in poor condition
RY ROUGH WITH SEVERE GRASS ENCROACHMENT, CRACKING AND RAVELING.
Weight bearing capacity: 
Single wheel: LESS THAN 4000 LBS
Runway edge lights: low intensity
RUNWAY 17  RUNWAY 35
Latitude: 36-09.521542N36-09.120157N
Longitude: 098-56.017765W098-56.024577W
Elevation: 1746.0 ft.1736.0 ft.
Traffic pattern: leftleft
Runway heading: 173 magnetic, 181 true353 magnetic, 001 true
Visual slope indicator: tri-color VASI on left (4.50 degrees glide path)
TRIL OTS INDEFLY.
tri-color VASI on left (6.50 degrees glide path)
TRIL OTS INDEFLY.
Obstructions: none
15 FT ROAD 35 FT FM THLD; +35 FT TREE 100 FT L OF CNTRLN AT THLD.
25 ft. tree, 220 ft. from runway, 30 ft. left of centerline, 1:1 slope to clear
15 FT ROAD 110 FT FM THLD; 20 FT POWERLINE 140 FT FM THLD, 115 FT RIGHT AND LEFT OF CENTERLINE; +15 FT TREE 120 FT RIGHT OF CENTERLINE AT THRESHOLD.

Airport Ownership and Management from official FAA records

Ownership: Publicly-owned
Owner: TOWN OF SEILING
315 N. MAIN ST.
SEILING, OK 73663
Phone 580-922-4460
Manager: GENA CHRISTENSEN
PO BOX 1043
SEILING, OK 73663
Phone 580-922-4460
CITY MANAGER.

Airport Operational Statistics

Aircraft based on the field: 2
Single engine airplanes: 2
    
Aircraft operations: 20/year *
100% transient general aviation
* for 12-month period ending 20 October 2017

Additional Remarks

496 FT AGL UNLGTD TOWER 18 NM S OF ARPT.
FOR CD CTC KANSAS CITY ARTCC AT 913-254-8508.

Instrument Procedures

There are no published instrument procedures at 1S4.

Some nearby airports with instrument procedures:

KMDF - Mooreland Municipal Airport (23 nm NW)
6K4 - Fairview Municipal Airport (24 nm E)
1O4 - Thomas Municipal Airport (27 nm S)
KJWG - Watonga Regional Airport (30 nm SE)
KWWR - West Woodward Airport (33 nm NW)
 
Loc | Ops | Rwys | IFR | FBO | Links
Com | Nav | Svcs | Stats | Notes

AirBoss

 
Area around 1S4 (Seiling Airport)
 
Road maps at: MapQuest Bing Google
 
Aerial photo
No photo
 
Sectional chart

 
Airport distance calculator
Flying to Seiling Airport? Find the distance to fly.

From to 1S4

Sunrise and sunset
Times for 25-Jan-2020
 Local
(UTC-6)
 Zulu
(UTC)
Morning civil twilight07:1513:15
Sunrise07:4313:43
Sunset17:5423:54
Evening civil twilight18:2100:21

Current date and time
Zulu (UTC)  25-Jan-2020 20:52:39
Local (UTC-6)  25-Jan-2020 14:52:39
 
METAR
KJWG 
30nm SE 
252035Z AUTO 08006KT 10SM OVC110 14/04 A2994 RMK AO2 T01390038
KCLK 
37nm S 
252035Z AUTO 13011G14KT 10SM CLR 16/03 A2991 RMK AO2
KWWR 
39nm NW 
252035Z AUTO 10008KT 10SM OVC090 12/01 A2993 RMK AO2
KOJA 
39nm S 
252035Z AUTO 17008KT 10SM CLR 16/04 A2990 RMK AO2
KAVK 
39nm N 
252035Z AUTO 10005KT 10SM SCT120 09/03 A2995 RMK AO2 PWINO TSNO
KGAG 
41nm W 
251953Z AUTO 06007KT 10SM SCT090 16/02 A2989 RMK AO2 SLP119 T01560017
KELK 
49nm SW 
252035Z AUTO 16011KT 140V200 10SM CLR 15/04 A2988 RMK AO2 T01540041
TAF
KWWR 
39nm NW 
251736Z 2518/2618 14005KT P6SM BKN250 FM260000 VRB03KT P6SM SCT250 FM261300 31008KT P6SM SCT250
NOTAMs
Click for the latest NOTAMs
NOTAMs are issued by the DoD/FAA and will open in a separate window not controlled by AirNav.

 

 
 

Would you like to see your business listed on this page?

 If your business provides an interesting product or service to pilots, flight crews, aircraft, or users of the Seiling Airport, you should consider listing it here.  To start the listing process, click on the button below
 
Add a business
 

Other Pages about Seiling Airport

Update a link
 
Copyright © AirNav, LLC. All rights reserved. Privacy Policy  Contact